Regional Weather Roundup
Issued by NWS

Home | Current Version | Previous Version | Graphics & Text | Print | Product List | Glossary On
Versions: 1 2 3 4 5 6 7 8 9 10 11 12 13 14 15 16 17 18 19 20 21 22 23 24 25 26 27 28 29 30 31 32 33 34 35 36 37 38 39 40 41 42 43 44 45 46 47 48 49 50
000
ASUS45 KTFX 281819
RWRMT
MONTANA REGIONAL WEATHER ROUNDUP
NATIONAL WEATHER SERVICE GREAT FALLS MT
1200 PM MDT FRI AUG 28 2015

NOTE: "FAIR" INDICATES FEW OR NO CLOUDS BELOW 12000 FEET WITH NO
SIGNIFICANT WEATHER AND/OR OBSTRUCTIONS TO VISIBILITY.

MTZ001>007-043-281900-
WEST OF THE DIVIDE

CITY           SKY/WX    TMP DP  RH WIND       PRES   REMARKS
KALISPELL      CLOUDY    77  42  28 CALM      29.99F SMOKE
MISSOULA       CLOUDY    69  42  37 S5        30.05F HAZE
BUTTE          CLOUDY    70  42  36 N6        30.21F HAZE
MULLAN PASS    CLOUDY    66  37  34 VRB5      30.16R HAZE
DEER LODGE       N/A     79  41  25 S6        30.16F
EUREKA           N/A     81  39  22 SE9       29.94F
HAMILTON         N/A     70  46  43 N5        30.05F
LIBBY            N/A     72  41  33 CALM      29.97F
RONAN            N/A     79  47  32 CALM      30.03F
$$

MTZ008-052>055-281900-
SOUTHWEST MONTANA

CITY           SKY/WX    TMP DP  RH WIND       PRES   REMARKS
BOZEMAN        MOSUNNY   73  48  41 CALM      30.17F
DILLON         MOSUNNY   76  42  29 CALM      30.19F HAZE
W YELLOWSTONE  SUNNY     72  36  26 SE6       30.33F
THREE FORKS      N/A     74  74 100 CALM      30.14F
TWIN BRIDGES     N/A     71  43  36 S8        30.16F
$$

MTZ009-010-012-014-046-048-049-054-281900-
EAST SLOPES AND CENTRAL MONTANA

CITY           SKY/WX    TMP DP  RH WIND       PRES   REMARKS
CUT BANK       CLOUDY    80  35  19 SW17      30.02F HAZE
GREAT FALLS    PTSUNNY   85  33  15 SW15      30.04F HAZE
MALMSTROM AFB  MOSUNNY   85  34  16 SW15      30.04F
HELENA         PTSUNNY   77  46  33 VRB6      30.09F SMOKE
CONRAD           N/A     84  37  18 S10       30.05
$$

MTZ011-013-016-021-045-047-050-051-281900-
NORTH CENTRAL MONTANA

CITY           SKY/WX    TMP DP  RH WIND       PRES   REMARKS
HAVRE          CLOUDY    77  42  28 SW15      29.97F HAZE
LEWISTOWN      PTSUNNY   81  39  22 N6        30.10F HAZE
N BAR RANCH      N/A     82  25  12 W9G18     30.14S
CHINOOK          N/A     75  45  33 W7        29.96F
FORT BENTON      N/A     88  36  15 SW9       29.99F
$$

MTZ017>020-022>027-061-062-281900-
NORTHEAST MONTANA

CITY           SKY/WX    TMP DP  RH WIND       PRES   REMARKS
GLASGOW        PTSUNNY   83  46  27 W6        29.94F HAZE
JORDAN           N/A     86  40  19 NW10      29.99F
SIDNEY         SUNNY     81  61  50 S8        29.91F
WOLF POINT     CLOUDY    79  54  41 SW12      29.93F HAZE
MALTA            N/A     80  47  31 W9        29.92F
PLENTYWOOD       N/A     82  43  24 W13       29.90F
POPLAR           N/A     79  54  41 W9        29.92F
SCOBEY           N/A     81  46  29 W9        29.92
$$

MTZ028>42-056>058-281900-
SOUTHCENTRAL AND SOUTHEAST MONTANA

CITY           SKY/WX    TMP DP  RH WIND       PRES   REMARKS
BAKER          MOSUNNY   81  48  31 W13       30.01S
BILLINGS       PTSUNNY   77  51  40 SW13      30.11F
LIVINGSTON     SUNNY     83  41  22 W21       30.15F
MILES CITY     CLOUDY    84  43  23 NW13      30.00S HAZE
EKALAKA          N/A     78  46  32 SW12      30.03
FORSYTH          N/A     81  45  28 W10       30.02F
LAUREL           N/A     79  47  32 S8        30.09F
ROUNDUP          N/A     82  39  21 SW8       29.99F
$$

REGIONAL REPORTS...DAKOTAS

CITY           SKY/WX    TMP DP  RH WIND       PRES   REMARKS
WILLISTON      SUNNY     81  61  50 S8        29.90F
MINOT          SUNNY     82  60  47 NW5       29.87S
DICKINSON      SUNNY     84  55  36 NW6       29.94S
BEACH            N/A     81  50  34 W8        29.98F
CROSBY           N/A     77  59  53 CALM      29.90S
BISMARCK       SUNNY     82  65  56 SW6       29.91S
GRAND FORKS    CLOUDY    79  67  66 S17       29.84F
FARGO          MOSUNNY   79  67  66 S12       29.93S
BUFFALO SD       N/A     82  50  32 W9        29.95F
RAPID CITY     SUNNY     82  53  36 N10       30.05F
$$

REGIONAL REPORTS...WYOMING/IDAHO/WASHINGTON

CITY           SKY/WX    TMP DP  RH WIND       PRES   REMARKS
GILLETTE       SUNNY     82  44  26 NW12      30.16S
SHERIDAN       SUNNY     85  40  20 N7        30.13F HAZE
BUFFALO WY     SUNNY     82  37  20 VRB3      30.21F
CODY           SUNNY     79  39  24 SW6       30.20F
YELLOWSTONE LA   N/A     58  46  64 E5        30.44F
IDAHO FALLS    SUNNY     74  50  42 VRB3      30.22F
SALMON         CLOUDY    70  45  40 NW3       30.12F
BOISE          PTSUNNY   84  39  20 VRB3      30.04F
SPOKANE        CLOUDY    73  41  31 S7        29.99S
$$

REGIONAL REPORTS...ALBERTA

CITY           SKY/WX    TMP DP  RH WIND       PRES   REMARKS
EDMONTON       SUNNY     77  46  33 SW6       29.76F
CALGARY        PTSUNNY   68  45  42 SW7       29.90F SMOKE
LETHBRIDGE     CLOUDY    79  41  25 SW14G21   29.94S SMOKE
MEDICINE HAT   CLOUDY    79  43  27 SW10      29.90F SMOKE
WATERTON GATE    N/A     77  41  27 S10G17      N/A
CARDSTON         N/A     75  39  27 S8          N/A
MILK RIVER       N/A     79  37  22 W15G21      N/A
$$

REGIONAL REPORTS...SASKATCHEWAN

CITY           SKY/WX    TMP DP  RH WIND       PRES   REMARKS
SWIFT CURRENT  SUNNY     73  54  49 W12       29.89F HAZE
REGINA         CLOUDY    75  64  69 E6        29.88S
SASKATOON      PTSUNNY   75  57  53 S6        29.88S
CYPRESS HILLS    N/A     75  37  25 W9          N/A
VAL MARIE        N/A     77  41  27 W15         N/A
ROCKGLEN         N/A     75  46  35 SW13        N/A
ASSINIBOIA       N/A     77  57  50 SW13        N/A
$$



USA.gov is the U.S. government's official web portal to all federal, state and local government web resources and services.